| time (UTC) | temp F | wind direction | speed MPH | gust MPH | rain 1hr in | rain 24hr in | rain mn in | humidity % | barometer mb |
| 20260507105421 | 52 | 270 | 1.0 | 2.0 | 0.00 | 0.00 | 0.00 | 95 | 1011.2 |
| 20260507104921 | 52 | 270 | 2.0 | 2.0 | 0.00 | 0.00 | 0.00 | 95 | 1011.2 |
| 20260507104422 | 52 | 270 | 0.0 | 1.0 | 0.00 | 0.00 | 0.00 | 95 | 1011.2 |
| 20260507103921 | 52 | 270 | 0.0 | 1.0 | 0.00 | 0.00 | 0.00 | 95 | 1011.2 |
| 20260507103422 | 52 | 270 | 2.0 | 3.0 | 0.00 | 0.00 | 0.00 | 95 | 1011.2 |
| 20260507102922 | 52 | 270 | 1.0 | 2.0 | 0.00 | 0.00 | 0.00 | 95 | 1010.8 |
| 20260507102422 | 52 | 270 | 0.0 | 0.0 | 0.00 | 0.00 | 0.00 | 95 | 1010.5 |
| 20260507101922 | 52 | 270 | 1.0 | 2.0 | 0.00 | 0.00 | 0.00 | 95 | 1010.8 |
| 20260507101421 | 52 | 270 | 0.0 | 1.0 | 0.00 | 0.00 | 0.00 | 96 | 1010.5 |
| 20260507100922 | 52 | 270 | 1.0 | 2.0 | 0.00 | 0.00 | 0.00 | 96 | 1010.5 |
| 20260507100422 | 52 | 270 | 2.0 | 2.0 | 0.00 | 0.00 | 0.00 | 96 | 1010.5 |
| 20260507095922 | 52 | 270 | 1.0 | 2.0 | 0.00 | 0.00 | 0.00 | 96 | 1010.2 |
| 20260507095422 | 52 | 270 | 3.0 | 3.0 | 0.00 | 0.00 | 0.00 | 95 | 1010.2 |
| 20260507094921 | 52 | 270 | 1.0 | 2.0 | 0.00 | 0.00 | 0.00 | 95 | 1010.2 |
| 20260507094421 | 52 | 248 | 1.0 | 2.0 | 0.00 | 0.00 | 0.00 | 94 | 1010.2 |
| 20260507093922 | 52 | 270 | 1.0 | 2.0 | 0.00 | 0.00 | 0.00 | 94 | 1010.2 |
| 20260507093422 | 52 | 270 | 2.0 | 3.0 | 0.00 | 0.00 | 0.00 | 94 | 1010.2 |
| 20260507092922 | 52 | 270 | 1.0 | 2.0 | 0.00 | 0.00 | 0.00 | 93 | 1010.2 |
| 20260507092421 | 52 | 248 | 1.0 | 2.0 | 0.00 | 0.00 | 0.00 | 93 | 1009.8 |
| 20260507091922 | 53 | 270 | 1.0 | 2.0 | 0.00 | 0.00 | 0.00 | 92 | 1010.2 |
| 20260507091422 | 53 | 248 | 1.0 | 2.0 | 0.00 | 0.00 | 0.00 | 92 | 1009.8 |
| 20260507090922 | 53 | 248 | 2.0 | 2.0 | 0.00 | 0.00 | 0.00 | 92 | 1009.8 |
| 20260507090421 | 53 | 203 | 2.0 | 3.0 | 0.00 | 0.00 | 0.00 | 91 | 1009.8 |
| 20260507085921 | 53 | 248 | 1.0 | 2.0 | 0.00 | 0.00 | 0.00 | 91 | 1009.8 |
| 20260507085422 | 53 | 203 | 2.0 | 2.0 | 0.00 | 0.00 | 0.00 | 91 | 1009.8 |
| 20260507084921 | 54 | 248 | 2.0 | 3.0 | 0.00 | 0.00 | 0.00 | 91 | 1009.8 |
| 20260507084421 | 54 | 248 | 1.0 | 2.0 | 0.00 | 0.00 | 0.00 | 90 | 1009.8 |
| 20260507083921 | 54 | 225 | 2.0 | 2.0 | 0.00 | 0.00 | 0.00 | 90 | 1009.8 |
| 20260507083422 | 54 | 248 | 3.0 | 5.0 | 0.00 | 0.00 | 0.00 | 90 | 1009.5 |
| 20260507082921 | 54 | 270 | 2.0 | 3.0 | 0.00 | 0.00 | 0.00 | 89 | 1009.5 |
| 20260507082421 | 54 | 248 | 3.0 | 3.0 | 0.00 | 0.00 | 0.00 | 90 | 1009.5 |
| 20260507081925 | 54 | 203 | 2.0 | 3.0 | 0.00 | 0.00 | 0.00 | 90 | 1009.5 |
| 20260507081422 | 55 | 248 | 4.0 | 5.0 | 0.00 | 0.00 | 0.00 | 91 | 1009.5 |
| 20260507080921 | 55 | 248 | 4.0 | 5.0 | 0.00 | 0.00 | 0.00 | 92 | 1009.5 |
| 20260507080421 | 55 | 225 | 2.0 | 2.0 | 0.00 | 0.00 | 0.00 | 92 | 1009.5 |
| 20260507075922 | 55 | 225 | 0.0 | 0.0 | 0.00 | 0.00 | 0.00 | 92 | 1009.8 |
| 20260507075421 | 55 | 203 | 2.0 | 2.0 | 0.00 | 0.00 | 0.00 | 92 | 1009.8 |
| 20260507074923 | 56 | 248 | 1.0 | 2.0 | 0.00 | 0.00 | 0.00 | 91 | 1009.8 |
| 20260507074421 | 56 | 225 | 2.0 | 2.0 | 0.00 | 0.00 | 0.00 | 91 | 1009.8 |
| 20260507073921 | 56 | 270 | 2.0 | 2.0 | 0.00 | 0.00 | 0.00 | 90 | 1009.5 |
| 20260507073423 | 56 | 248 | 2.0 | 3.0 | 0.00 | 0.00 | 0.00 | 90 | 1009.5 |
| 20260507072921 | 56 | 248 | 3.0 | 5.0 | 0.00 | 0.00 | 0.00 | 90 | 1009.5 |
| 20260507072422 | 56 | 270 | 2.0 | 2.0 | 0.00 | 0.00 | 0.00 | 90 | 1009.1 |
| 20260507071925 | 56 | 270 | 4.0 | 5.0 | 0.00 | 0.00 | 0.00 | 89 | 1009.1 |
| 20260507071422 | 57 | 270 | 2.0 | 3.0 | 0.00 | 0.00 | 0.00 | 88 | 1009.1 |
| 20260507070923 | 57 | 248 | 7.0 | 9.0 | 0.00 | 0.00 | 0.00 | 88 | 1008.8 |
| 20260507070421 | 57 | 248 | 3.0 | 3.0 | 0.00 | 0.00 | 0.00 | 87 | 1008.8 |
| 20260507065921 | 57 | 270 | 3.0 | 3.0 | 0.00 | 0.00 | 0.00 | 87 | 1008.8 |
| 20260507065422 | 57 | 248 | 3.0 | 4.0 | 0.00 | 0.00 | 0.00 | 87 | 1008.8 |
| 20260507064921 | 57 | 248 | 2.0 | 3.0 | 0.00 | 0.00 | 0.00 | 87 | 1008.8 |
| 20260507064422 | 57 | 270 | 3.0 | 4.0 | 0.00 | 0.00 | 0.00 | 87 | 1008.8 |
| 20260507063922 | 58 | 270 | 3.0 | 3.0 | 0.00 | 0.00 | 0.00 | 87 | 1008.5 |
| 20260507063422 | 58 | 203 | 5.0 | 7.0 | 0.00 | 0.00 | 0.00 | 87 | 1008.8 |
| 20260507062922 | 58 | 203 | 4.0 | 6.0 | 0.00 | 0.00 | 0.00 | 87 | 1008.8 |
| 20260507062422 | 58 | 270 | 1.0 | 2.0 | 0.00 | 0.00 | 0.00 | 88 | 1008.8 |
| 20260507061922 | 58 | 180 | 4.0 | 5.0 | 0.00 | 0.00 | 0.00 | 88 | 1009.1 |
| 20260507061421 | 58 | 225 | 2.0 | 2.0 | 0.00 | 0.00 | 0.00 | 88 | 1009.1 |
| 20260507060923 | 58 | 248 | 3.0 | 4.0 | 0.00 | 0.00 | 0.00 | 88 | 1008.8 |
| 20260507060422 | 58 | 203 | 3.0 | 3.0 | 0.00 | 0.00 | 0.00 | 88 | 1009.1 |
| 20260507055921 | 58 | 248 | 2.0 | 3.0 | 0.00 | 0.00 | 0.00 | 88 | 1009.1 |
| 20260507055421 | 58 | 203 | 4.0 | 7.0 | 0.00 | 0.00 | 0.00 | 88 | 1009.1 |
| 20260507054922 | 58 | 248 | 3.0 | 5.0 | 0.00 | 0.00 | 0.00 | 87 | 1008.8 |
| 20260507054421 | 58 | 270 | 4.0 | 5.0 | 0.00 | 0.00 | 0.00 | 88 | 1009.1 |
| 20260507053923 | 58 | 248 | 3.0 | 4.0 | 0.00 | 0.00 | 0.00 | 88 | 1009.1 |
| 20260507053422 | 58 | 225 | 3.0 | 4.0 | 0.00 | 0.00 | 0.00 | 88 | 1009.1 |
| 20260507052921 | 58 | 248 | 3.0 | 4.0 | 0.00 | 0.00 | 0.00 | 88 | 1009.1 |
| 20260507052421 | 58 | 225 | 3.0 | 4.0 | 0.00 | 0.00 | 0.00 | 88 | 1009.1 |
| 20260507051921 | 58 | 248 | 4.0 | 5.0 | 0.00 | 0.00 | 0.00 | 88 | 1009.1 |
| 20260507051421 | 58 | 248 | 3.0 | 3.0 | 0.00 | 0.00 | 0.00 | 88 | 1008.8 |
| 20260507050923 | 58 | 225 | 3.0 | 4.0 | 0.00 | 0.00 | 0.00 | 89 | 1008.8 |
| 20260507050422 | 58 | 248 | 2.0 | 2.0 | 0.00 | 0.00 | 0.00 | 89 | 1008.8 |
| 20260507045921 | 58 | 248 | 3.0 | 4.0 | 0.00 | 0.00 | 0.01 | 89 | 1009.1 |
| 20260507045421 | 58 | 248 | 2.0 | 2.0 | 0.00 | 0.00 | 0.01 | 89 | 1009.1 |
| 20260507044922 | 58 | 270 | 3.0 | 5.0 | 0.00 | 0.00 | 0.01 | 89 | 1009.1 |
| 20260507044422 | 58 | 225 | 1.0 | 2.0 | 0.00 | 0.00 | 0.01 | 89 | 1009.1 |
| 20260507043921 | 58 | 203 | 3.0 | 3.0 | 0.00 | 0.00 | 0.01 | 90 | 1009.1 |
| 20260507043422 | 57 | 248 | 2.0 | 3.0 | 0.00 | 0.00 | 0.01 | 91 | 1009.1 |
| 20260507042922 | 57 | 225 | 1.0 | 2.0 | 0.00 | 0.00 | 0.01 | 91 | 1009.1 |
| 20260507042421 | 57 | 225 | 3.0 | 4.0 | 0.00 | 0.00 | 0.01 | 92 | 1009.1 |
| 20260507041925 | 57 | 225 | 3.0 | 4.0 | 0.00 | 0.00 | 0.01 | 92 | 1009.1 |
| 20260507041422 | 57 | 225 | 4.0 | 5.0 | 0.00 | 0.00 | 0.01 | 91 | 1009.1 |
| 20260507040921 | 58 | 225 | 3.0 | 4.0 | 0.00 | 0.00 | 0.01 | 91 | 1009.1 |
| 20260507040422 | 58 | 225 | 3.0 | 3.0 | 0.00 | 0.00 | 0.01 | 91 | 1009.1 |
| 20260507035921 | 58 | 225 | 2.0 | 3.0 | 0.00 | 0.00 | 0.01 | 91 | 1009.1 |
| 20260507035422 | 58 | 225 | 2.0 | 2.0 | 0.00 | 0.00 | 0.01 | 91 | 1009.1 |
| 20260507034922 | 58 | 225 | 3.0 | 4.0 | 0.00 | 0.00 | 0.01 | 91 | 1009.1 |
| 20260507034421 | 58 | 225 | 2.0 | 4.0 | 0.00 | 0.00 | 0.01 | 91 | 1009.5 |
| 20260507033921 | 58 | 270 | 1.0 | 2.0 | 0.00 | 0.00 | 0.01 | 92 | 1009.5 |
| 20260507033422 | 58 | 270 | 2.0 | 3.0 | 0.00 | 0.00 | 0.01 | 92 | 1009.5 |
| 20260507032922 | 58 | 203 | 2.0 | 3.0 | 0.00 | 0.00 | 0.01 | 92 | 1009.5 |
| 20260507032422 | 58 | 248 | 2.0 | 3.0 | 0.00 | 0.00 | 0.01 | 93 | 1009.1 |
| 20260507031922 | 58 | 248 | 2.0 | 2.0 | 0.00 | 0.00 | 0.01 | 93 | 1009.1 |
| 20260507031422 | 58 | 225 | 2.0 | 2.0 | 0.00 | 0.00 | 0.01 | 93 | 1009.1 |
| 20260507030922 | 58 | 248 | 2.0 | 2.0 | 0.00 | 0.00 | 0.01 | 93 | 1009.1 |
| 20260507030421 | 57 | 270 | 2.0 | 3.0 | 0.00 | 0.00 | 0.01 | 94 | 1009.1 |
| 20260507025922 | 57 | 248 | 2.0 | 2.0 | 0.00 | 0.00 | 0.01 | 94 | 1008.8 |
| 20260507025421 | 57 | 225 | 1.0 | 2.0 | 0.00 | 0.00 | 0.01 | 95 | 1008.8 |
| 20260507024922 | 57 | 225 | 2.0 | 2.0 | 0.00 | 0.00 | 0.01 | 95 | 1008.8 |
| 20260507024422 | 57 | 225 | 1.0 | 2.0 | 0.00 | 0.00 | 0.01 | 95 | 1008.8 |
| 20260507023922 | 57 | 270 | 0.0 | 1.0 | 0.00 | 0.00 | 0.01 | 94 | 1008.8 |
| 20260507023421 | 57 | 248 | 2.0 | 2.0 | 0.00 | 0.00 | 0.01 | 94 | 1008.8 |
| 20260507022922 | 57 | 248 | 0.0 | 0.0 | 0.00 | 0.00 | 0.01 | 94 | 1008.8 |
| 20260507022422 | 57 | 270 | 0.0 | 0.0 | 0.00 | 0.00 | 0.01 | 94 | 1008.8 |
| 20260507021921 | 57 | 203 | 1.0 | 2.0 | 0.00 | 0.00 | 0.01 | 94 | 1008.5 |
| 20260507021423 | 57 | 203 | 1.0 | 2.0 | 0.00 | 0.00 | 0.01 | 93 | 1008.5 |
| 20260507020921 | 58 | 225 | 2.0 | 2.0 | 0.00 | 0.00 | 0.01 | 93 | 1008.5 |
| 20260507020424 | 58 | 203 | 0.0 | 1.0 | 0.00 | 0.00 | 0.01 | 93 | 1008.1 |
| 20260507015922 | 58 | 270 | 2.0 | 2.0 | 0.00 | 0.00 | 0.01 | 92 | 1008.1 |
| 20260507015423 | 58 | 248 | 2.0 | 2.0 | 0.00 | 0.00 | 0.01 | 92 | 1008.1 |
| 20260507014922 | 58 | 270 | 1.0 | 2.0 | 0.00 | 0.00 | 0.01 | 91 | 1007.8 |
| 20260507014421 | 58 | 248 | 1.0 | 2.0 | 0.00 | 0.00 | 0.01 | 91 | 1007.8 |
| 20260507013923 | 59 | 203 | 2.0 | 2.0 | 0.00 | 0.00 | 0.01 | 90 | 1007.5 |
| 20260507012937 | 59 | 203 | 2.0 | 2.0 | 0.00 | 0.00 | 0.01 | 89 | 1007.5 |
| 20260507012422 | 59 | 225 | 1.0 | 2.0 | 0.00 | 0.00 | 0.01 | 89 | 1007.1 |
| 20260507011922 | 59 | 203 | 3.0 | 4.0 | 0.00 | 0.00 | 0.01 | 88 | 1007.1 |
| 20260507011422 | 59 | 270 | 2.0 | 2.0 | 0.00 | 0.00 | 0.01 | 88 | 1007.5 |
| 20260507010921 | 59 | 248 | 1.0 | 1.0 | 0.00 | 0.00 | 0.01 | 88 | 1007.1 |
| 20260507010422 | 60 | 225 | 3.0 | 4.0 | 0.00 | 0.00 | 0.01 | 87 | 1006.8 |
| 20260507005921 | 60 | 248 | 4.0 | 5.0 | 0.00 | 0.00 | 0.01 | 87 | 1006.8 |
| 20260507005422 | 60 | 203 | 2.0 | 2.0 | 0.00 | 0.00 | 0.01 | 87 | 1006.8 |
| 20260507004922 | 60 | 225 | 2.0 | 2.0 | 0.00 | 0.00 | 0.01 | 86 | 1007.1 |
| 20260507004421 | 60 | 203 | 3.0 | 3.0 | 0.00 | 0.00 | 0.01 | 86 | 1006.8 |
| 20260507003922 | 60 | 225 | 3.0 | 4.0 | 0.00 | 0.00 | 0.01 | 85 | 1007.1 |
| 20260507003422 | 60 | 225 | 1.0 | 2.0 | 0.00 | 0.00 | 0.01 | 85 | 1007.1 |
| 20260507002922 | 60 | 203 | 2.0 | 2.0 | 0.00 | 0.00 | 0.01 | 85 | 1007.1 |
| 20260507002421 | 60 | 270 | 2.0 | 2.0 | 0.00 | 0.00 | 0.01 | 85 | 1007.1 |
| 20260507001922 | 60 | 270 | 3.0 | 3.0 | 0.00 | 0.00 | 0.01 | 85 | 1007.1 |
| 20260507001422 | 60 | 248 | 2.0 | 2.0 | 0.00 | 0.00 | 0.01 | 85 | 1007.1 |
| 20260507000921 | 60 | 225 | 2.0 | 2.0 | 0.00 | 0.00 | 0.01 | 85 | 1006.8 |
| 20260507000421 | 60 | 203 | 1.0 | 2.0 | 0.00 | 0.00 | 0.01 | 84 | 1006.8 |
| 20260506235921 | 60 | 203 | 2.0 | 2.0 | 0.00 | 0.00 | 0.01 | 86 | 1006.8 |
| 20260506235422 | 60 | 270 | 3.0 | 5.0 | 0.00 | 0.00 | 0.01 | 84 | 1006.8 |
| 20260506234924 | 60 | 270 | 3.0 | 5.0 | 0.00 | 0.00 | 0.01 | 85 | 1006.8 |
| 20260506234421 | 60 | 270 | 2.0 | 3.0 | 0.00 | 0.00 | 0.01 | 85 | 1006.8 |
| 20260506233922 | 60 | 270 | 1.0 | 2.0 | 0.00 | 0.00 | 0.01 | 86 | 1006.4 |
| 20260506233421 | 60 | 270 | 2.0 | 3.0 | 0.00 | 0.00 | 0.01 | 84 | 1006.4 |
| 20260506232921 | 60 | 248 | 4.0 | 7.0 | 0.00 | 0.00 | 0.01 | 84 | 1006.4 |
| 20260506232421 | 60 | 248 | 3.0 | 3.0 | 0.00 | 0.00 | 0.01 | 85 | 1006.4 |
| 20260506231922 | 60 | 270 | 3.0 | 4.0 | 0.00 | 0.00 | 0.01 | 86 | 1006.4 |
| 20260506231421 | 61 | 270 | 4.0 | 5.0 | 0.00 | 0.00 | 0.01 | 84 | 1006.4 |
| 20260506230921 | 61 | 270 | 2.0 | 3.0 | 0.00 | 0.00 | 0.01 | 83 | 1006.4 |
| 20260506230421 | 61 | 248 | 4.0 | 6.0 | 0.00 | 0.00 | 0.01 | 80 | 1006.4 |
| 20260506225921 | 62 | 270 | 2.0 | 2.0 | 0.00 | 0.00 | 0.01 | 78 | 1006.4 |
| 20260506225421 | 62 | 248 | 2.0 | 3.0 | 0.00 | 0.00 | 0.01 | 77 | 1006.1 |
| 20260506224922 | 62 | 203 | 2.0 | 2.0 | 0.00 | 0.00 | 0.01 | 77 | 1006.1 |
| 20260506224422 | 62 | 248 | 2.0 | 3.0 | 0.00 | 0.00 | 0.01 | 76 | 1006.4 |
| 20260506223921 | 62 | 270 | 1.0 | 2.0 | 0.00 | 0.00 | 0.01 | 76 | 1006.1 |
| 20260506223422 | 62 | 248 | 3.0 | 5.0 | 0.00 | 0.00 | 0.01 | 76 | 1006.1 |
| 20260506222921 | 62 | 225 | 3.0 | 3.0 | 0.00 | 0.00 | 0.01 | 76 | 1006.1 |
| 20260506222421 | 62 | 248 | 4.0 | 5.0 | 0.00 | 0.00 | 0.01 | 74 | 1006.4 |
| 20260506221922 | 62 | 270 | 2.0 | 3.0 | 0.00 | 0.00 | 0.01 | 75 | 1006.1 |
| 20260506221422 | 63 | 225 | 4.0 | 6.0 | 0.00 | 0.00 | 0.01 | 75 | 1006.1 |
| 20260506220922 | 63 | 248 | 4.0 | 5.0 | 0.00 | 0.00 | 0.01 | 74 | 1006.1 |
| 20260506220421 | 63 | 180 | 2.0 | 2.0 | 0.00 | 0.00 | 0.01 | 74 | 1006.1 |
| 20260506215921 | 63 | 225 | 5.0 | 7.0 | 0.00 | 0.00 | 0.01 | 74 | 1006.1 |
| 20260506215421 | 63 | 270 | 5.0 | 7.0 | 0.00 | 0.00 | 0.01 | 74 | 1006.1 |
| 20260506214421 | 62 | 248 | 3.0 | 4.0 | 0.00 | 0.00 | 0.01 | 75 | 1006.1 |
| 20260506213922 | 62 | 270 | 4.0 | 5.0 | 0.00 | 0.00 | 0.01 | 75 | 1006.1 |
| 20260506212422 | 62 | 270 | 4.0 | 5.0 | 0.00 | 0.00 | 0.01 | 75 | 1006.4 |
| 20260506211922 | 62 | 270 | 2.0 | 3.0 | 0.00 | 0.00 | 0.01 | 75 | 1006.1 |
| 20260506211421 | 62 | 248 | 6.0 | 7.0 | 0.00 | 0.00 | 0.01 | 73 | 1006.1 |
| 20260506210922 | 62 | 248 | 3.0 | 4.0 | 0.00 | 0.00 | 0.01 | 75 | 1006.1 |
| 20260506205422 | 62 | 270 | 3.0 | 4.0 | 0.00 | 0.00 | 0.01 | 74 | 1006.1 |
| 20260506204921 | 62 | 248 | 5.0 | 6.0 | 0.00 | 0.00 | 0.01 | 73 | 1006.1 |
| 20260506204421 | 62 | 248 | 5.0 | 7.0 | 0.00 | 0.00 | 0.01 | 75 | 1006.1 |
| 20260506203921 | 62 | 270 | 11.0 | 11.0 | 0.00 | 0.00 | 0.01 | 75 | 1006.1 |
| 20260506203421 | 62 | 180 | 3.0 | 3.0 | 0.00 | 0.00 | 0.01 | 76 | 1006.4 |
| 20260506202922 | 61 | 203 | 4.0 | 5.0 | 0.00 | 0.00 | 0.01 | 76 | 1006.1 |
| 20260506202422 | 61 | 270 | 4.0 | 5.0 | 0.00 | 0.00 | 0.01 | 76 | 1006.4 |
| 20260506201922 | 61 | 270 | 4.0 | 5.0 | 0.00 | 0.00 | 0.01 | 77 | 1006.4 |
| 20260506201422 | 60 | 248 | 3.0 | 3.0 | 0.00 | 0.00 | 0.01 | 78 | 1006.8 |
| 20260506200921 | 60 | 270 | 3.0 | 5.0 | 0.00 | 0.00 | 0.01 | 80 | 1006.4 |
| 20260506200422 | 59 | 270 | 4.0 | 6.0 | 0.00 | 0.00 | 0.01 | 79 | 1006.8 |
| 20260506195922 | 58 | 225 | 2.0 | 4.0 | 0.00 | 0.00 | 0.01 | 80 | 1006.8 |
| 20260506195421 | 58 | 203 | 3.0 | 4.0 | 0.00 | 0.00 | 0.01 | 82 | 1007.1 |
| 20260506194922 | 57 | 225 | 4.0 | 5.0 | 0.00 | 0.00 | 0.01 | 83 | 1007.1 |
| 20260506194421 | 57 | 270 | 2.0 | 3.0 | 0.00 | 0.00 | 0.01 | 83 | 1006.8 |
| 20260506193922 | 57 | 248 | 3.0 | 5.0 | 0.00 | 0.00 | 0.01 | 83 | 1007.1 |
| 20260506193421 | 57 | 270 | 6.0 | 8.0 | 0.00 | 0.00 | 0.01 | 83 | 1007.1 |
| 20260506192922 | 58 | 270 | 7.0 | 9.0 | 0.00 | 0.00 | 0.01 | 82 | 1007.1 |
| 20260506192421 | 58 | 248 | 2.0 | 3.0 | 0.00 | 0.00 | 0.01 | 83 | 1006.8 |
| 20260506191921 | 57 | 225 | 5.0 | 8.0 | 0.00 | 0.00 | 0.01 | 83 | 1007.1 |
| 20260506191422 | 57 | 248 | 3.0 | 5.0 | 0.00 | 0.00 | 0.01 | 85 | 1007.1 |
| 20260506190922 | 56 | 248 | 6.0 | 7.0 | 0.00 | 0.00 | 0.01 | 86 | 1007.1 |
| 20260506190421 | 56 | 270 | 2.0 | 2.0 | 0.00 | 0.00 | 0.01 | 87 | 1007.1 |
| 20260506185922 | 55 | 270 | 6.0 | 7.0 | 0.00 | 0.00 | 0.01 | 86 | 1007.1 |
| 20260506185422 | 55 | 270 | 4.0 | 6.0 | 0.00 | 0.00 | 0.01 | 86 | 1007.5 |
| 20260506184921 | 56 | 248 | 8.0 | 11.0 | 0.00 | 0.00 | 0.01 | 86 | 1007.5 |
| 20260506184422 | 56 | 203 | 5.0 | 7.0 | 0.00 | 0.00 | 0.01 | 86 | 1007.8 |
| 20260506183922 | 56 | 270 | 2.0 | 2.0 | 0.00 | 0.00 | 0.01 | 87 | 1007.8 |
| 20260506183421 | 56 | 270 | 4.0 | 6.0 | 0.00 | 0.00 | 0.01 | 87 | 1007.5 |
| 20260506182924 | 56 | 225 | 3.0 | 5.0 | 0.00 | 0.00 | 0.01 | 87 | 1007.5 |
| 20260506182421 | 55 | 270 | 2.0 | 3.0 | 0.00 | 0.00 | 0.01 | 88 | 1007.8 |
| 20260506181922 | 55 | 270 | 2.0 | 2.0 | 0.00 | 0.00 | 0.01 | 88 | 1007.8 |
| 20260506181421 | 55 | 270 | 5.0 | 7.0 | 0.00 | 0.00 | 0.01 | 87 | 1007.8 |
| 20260506180921 | 55 | 203 | 2.0 | 3.0 | 0.00 | 0.00 | 0.01 | 88 | 1007.8 |
| 20260506180422 | 55 | 248 | 6.0 | 8.0 | 0.00 | 0.00 | 0.01 | 88 | 1007.5 |
| 20260506175922 | 55 | 270 | 5.0 | 7.0 | 0.00 | 0.00 | 0.01 | 87 | 1007.1 |
| 20260506175422 | 56 | 270 | 4.0 | 6.0 | 0.00 | 0.00 | 0.01 | 88 | 1006.4 |
| 20260506174923 | 55 | 270 | 6.0 | 8.0 | 0.00 | 0.00 | 0.01 | 88 | 1006.1 |
| 20260506174422 | 55 | 270 | 5.0 | 6.0 | 0.00 | 0.00 | 0.01 | 88 | 1005.8 |
| 20260506173922 | 55 | 248 | 4.0 | 5.0 | 0.00 | 0.00 | 0.01 | 88 | 1005.8 |
| 20260506173423 | 55 | 270 | 13.0 | 15.0 | 0.00 | 0.00 | 0.01 | 88 | 1005.8 |
| 20260506172921 | 56 | 248 | 4.0 | 5.0 | 0.00 | 0.00 | 0.01 | 88 | 1006.1 |
| 20260506172422 | 55 | 270 | 5.0 | 7.0 | 0.00 | 0.00 | 0.01 | 88 | 1006.1 |
| 20260506171925 | 55 | 248 | 5.0 | 7.0 | 0.00 | 0.00 | 0.01 | 88 | 1005.8 |
| 20260506171422 | 55 | 203 | 3.0 | 5.0 | 0.00 | 0.00 | 0.01 | 87 | 1006.4 |
| 20260506170922 | 55 | 270 | 4.0 | 7.0 | 0.00 | 0.00 | 0.01 | 88 | 1006.8 |
| 20260506170421 | 55 | 225 | 4.0 | 5.0 | 0.00 | 0.00 | 0.01 | 88 | 1006.8 |
| 20260506165923 | 55 | 248 | 4.0 | 6.0 | 0.00 | 0.00 | 0.01 | 88 | 1006.8 |
| 20260506165422 | 55 | 248 | 6.0 | 7.0 | 0.00 | 0.00 | 0.01 | 88 | 1006.8 |
| 20260506164922 | 55 | 270 | 3.0 | 4.0 | 0.00 | 0.00 | 0.01 | 88 | 1007.5 |
| 20260506164424 | 55 | 248 | 3.0 | 4.0 | 0.00 | 0.00 | 0.01 | 88 | 1007.1 |
| 20260506163922 | 55 | 203 | 5.0 | 7.0 | 0.00 | 0.00 | 0.01 | 88 | 1007.5 |
| 20260506163421 | 55 | 270 | 5.0 | 6.0 | 0.00 | 0.00 | 0.01 | 88 | 1007.1 |
| 20260506162921 | 55 | 248 | 5.0 | 5.0 | 0.01 | 0.00 | 0.01 | 89 | 1006.8 |
| 20260506162422 | 55 | 270 | 4.0 | 5.0 | 0.01 | 0.00 | 0.01 | 89 | 1006.8 |
| 20260506161921 | 55 | 270 | 5.0 | 7.0 | 0.01 | 0.00 | 0.01 | 87 | 1006.8 |
| 20260506161422 | 56 | 270 | 4.0 | 6.0 | 0.01 | 0.00 | 0.01 | 87 | 1006.8 |
| 20260506160922 | 56 | 248 | 6.0 | 7.0 | 0.01 | 0.00 | 0.01 | 89 | 1006.8 |
| 20260506160424 | 56 | 270 | 5.0 | 7.0 | 0.01 | 0.00 | 0.01 | 90 | 1006.4 |
| 20260506155922 | 55 | 225 | 7.0 | 9.0 | 0.01 | 0.00 | 0.01 | 88 | 1006.4 |
| 20260506155421 | 55 | 270 | 6.0 | 8.0 | 0.01 | 0.00 | 0.01 | 93 | 1006.4 |
| 20260506154922 | 54 | 270 | 5.0 | 7.0 | 0.00 | 0.00 | 0.01 | 92 | 1006.4 |
| 20260506154421 | 54 | 203 | 4.0 | 5.0 | 0.00 | 0.00 | 0.01 | 94 | 1006.8 |
| 20260506153922 | 53 | 270 | 3.0 | 5.0 | 0.00 | 0.00 | 0.01 | 94 | 1006.8 |
| 20260506153422 | 53 | 203 | 7.0 | 9.0 | 0.00 | 0.00 | 0.01 | 93 | 1006.8 |
| 20260506152922 | 53 | 248 | 7.0 | 11.0 | 0.00 | 0.00 | 0.01 | 93 | 1006.8 |
| 20260506152422 | 53 | 270 | 3.0 | 4.0 | 0.00 | 0.00 | 0.00 | 94 | 1007.1 |
| 20260506151922 | 52 | 248 | 4.0 | 5.0 | 0.00 | 0.00 | 0.00 | 94 | 1006.8 |
| 20260506151423 | 52 | 225 | 3.0 | 3.0 | 0.00 | 0.00 | 0.00 | 94 | 1007.1 |
| 20260506150922 | 52 | 248 | 5.0 | 7.0 | 0.00 | 0.00 | 0.00 | 93 | 1007.1 |
| 20260506150421 | 52 | 248 | 6.0 | 7.0 | 0.00 | 0.00 | 0.00 | 93 | 1007.1 |
| 20260506145922 | 52 | 248 | 5.0 | 7.0 | 0.00 | 0.00 | 0.00 | 92 | 1008.1 |
| 20260506145422 | 52 | 248 | 4.0 | 5.0 | 0.00 | 0.00 | 0.00 | 91 | 1007.5 |
| 20260506144922 | 52 | 270 | 4.0 | 6.0 | 0.00 | 0.00 | 0.00 | 90 | 1007.8 |
| 20260506144421 | 53 | 248 | 4.0 | 5.0 | 0.00 | 0.00 | 0.00 | 89 | 1007.5 |
| 20260506143922 | 53 | 248 | 5.0 | 8.0 | 0.00 | 0.00 | 0.00 | 87 | 1008.5 |
| 20260506143422 | 53 | 270 | 4.0 | 6.0 | 0.00 | 0.00 | 0.00 | 87 | 1008.8 |
| 20260506142922 | 53 | 270 | 6.0 | 7.0 | 0.00 | 0.00 | 0.00 | 87 | 1007.8 |
| 20260506142422 | 53 | 270 | 3.0 | 3.0 | 0.00 | 0.00 | 0.00 | 87 | 1007.8 |
| 20260506141923 | 53 | 248 | 4.0 | 5.0 | 0.00 | 0.00 | 0.00 | 87 | 1007.8 |
| 20260506141421 | 53 | 248 | 3.0 | 5.0 | 0.00 | 0.00 | 0.00 | 86 | 1007.5 |
| 20260506140921 | 53 | 270 | 7.0 | 10.0 | 0.00 | 0.00 | 0.00 | 85 | 1006.1 |
| 20260506140422 | 53 | 270 | 5.0 | 6.0 | 0.00 | 0.00 | 0.00 | 84 | 1006.8 |
| 20260506135921 | 54 | 270 | 4.0 | 6.0 | 0.00 | 0.00 | 0.00 | 84 | 1006.4 |
| 20260506135422 | 54 | 270 | 5.0 | 9.0 | 0.00 | 0.00 | 0.00 | 84 | 1006.4 |
| 20260506134922 | 54 | 248 | 9.0 | 13.0 | 0.00 | 0.00 | 0.00 | 83 | 1006.4 |
| 20260506134423 | 54 | 270 | 5.0 | 11.0 | 0.00 | 0.00 | 0.00 | 82 | 1006.8 |
| 20260506133922 | 54 | 248 | 3.0 | 3.0 | 0.00 | 0.00 | 0.00 | 82 | 1006.8 |
| 20260506133421 | 54 | 270 | 5.0 | 6.0 | 0.00 | 0.00 | 0.00 | 82 | 1006.4 |
| 20260506132924 | 54 | 270 | 6.0 | 7.0 | 0.00 | 0.00 | 0.00 | 81 | 1006.1 |
| 20260506132421 | 55 | 248 | 4.0 | 6.0 | 0.00 | 0.00 | 0.00 | 81 | 1006.1 |
| 20260506131922 | 55 | 270 | 6.0 | 8.0 | 0.00 | 0.00 | 0.00 | 80 | 1005.8 |
| 20260506131422 | 55 | 270 | 8.0 | 10.0 | 0.00 | 0.00 | 0.00 | 79 | 1005.8 |
| 20260506130927 | 55 | 248 | 3.0 | 3.0 | 0.00 | 0.00 | 0.00 | 80 | 1005.8 |
| 20260506130422 | 55 | 248 | 6.0 | 7.0 | 0.00 | 0.00 | 0.00 | 80 | 1005.8 |
| 20260506125924 | 55 | 270 | 4.0 | 10.0 | 0.00 | 0.00 | 0.00 | 80 | 1005.8 |
| 20260506125422 | 56 | 248 | 4.0 | 5.0 | 0.00 | 0.00 | 0.00 | 80 | 1005.4 |
| 20260506124922 | 55 | 270 | 2.0 | 2.0 | 0.00 | 0.00 | 0.00 | 80 | 1005.4 |
| 20260506124421 | 55 | 270 | 2.0 | 4.0 | 0.00 | 0.00 | 0.00 | 81 | 1005.4 |
| 20260506123921 | 55 | 270 | 3.0 | 4.0 | 0.00 | 0.00 | 0.00 | 80 | 1005.4 |
| 20260506123421 | 55 | 248 | 7.0 | 10.0 | 0.00 | 0.00 | 0.00 | 80 | 1005.4 |
| 20260506122922 | 56 | 270 | 9.0 | 13.0 | 0.00 | 0.00 | 0.00 | 80 | 1005.1 |
| 20260506122422 | 56 | 248 | 2.0 | 3.0 | 0.00 | 0.00 | 0.00 | 81 | 1005.1 |
| 20260506121435 | 56 | 270 | 6.0 | 9.0 | 0.00 | 0.00 | 0.00 | 81 | 1005.1 |
| 20260506120921 | 56 | 203 | 3.0 | 4.0 | 0.00 | 0.00 | 0.00 | 81 | 1005.1 |
| 20260506120422 | 56 | 248 | 7.0 | 8.0 | 0.00 | 0.00 | 0.00 | 81 | 1005.1 |
| 20260506115921 | 56 | 270 | 4.0 | 5.0 | 0.00 | 0.00 | 0.00 | 81 | 1005.1 |
| 20260506115422 | 56 | 270 | 8.0 | 11.0 | 0.00 | 0.00 | 0.00 | 81 | 1005.1 |
| 20260506114922 | 56 | 248 | 8.0 | 15.0 | 0.00 | 0.00 | 0.00 | 81 | 1004.7 |
| 20260506114422 | 56 | 270 | 4.0 | 7.0 | 0.00 | 0.00 | 0.00 | 82 | 1005.1 |
| 20260506113922 | 56 | 270 | 9.0 | 12.0 | 0.00 | 0.00 | 0.00 | 81 | 1004.7 |
| 20260506113422 | 57 | 270 | 4.0 | 5.0 | 0.00 | 0.00 | 0.00 | 81 | 1004.7 |
| 20260506112924 | 57 | 270 | 3.0 | 4.0 | 0.00 | 0.00 | 0.00 | 81 | 1004.4 |
| 20260506112422 | 57 | 270 | 13.0 | 16.0 | 0.00 | 0.00 | 0.00 | 80 | 1004.4 |
| 20260506111922 | 57 | 270 | 7.0 | 9.0 | 0.00 | 0.00 | 0.00 | 80 | 1004.4 |
| 20260506111422 | 57 | 270 | 4.0 | 6.0 | 0.00 | 0.00 | 0.00 | 80 | 1004.4 |
| 20260506110923 | 57 | 270 | 3.0 | 4.0 | 0.00 | 0.00 | 0.00 | 81 | 1004.4 |
| 20260506110421 | 57 | 270 | 8.0 | 10.0 | 0.00 | 0.00 | 0.00 | 81 | 1004.1 |
| 20260506105923 | 58 | 248 | 7.0 | 9.0 | 0.00 | 0.00 | 0.00 | 81 | 1004.4 |